Location: Gälforsberget
(66.6500°N, 22.4167°E)
Time: 07:56:02
(UTC+00:00)

SL-8 Rocket - Pass Details

Date: 11 April 2026
Orbit: 957 x 989 km, 82.9° (Epoch: 13 May)

Event Time Altitude Azimuth Distance (km) Brightness Sun altitude
Rises 19:32:42 0° 188° (S) 3,669 6.6 -8.2°
Reaches altitude 10° 19:35:11 10° 187° (S) 2,729 6.0 -8.4°
Maximum altitude 19:41:27 78° 103° (ESE) 1,012 4.0 -8.8°
Drops below altitude 10° 19:47:47 10° 18° (NNE) 2,761 6.8 -9.2°
Sets 19:50:19 0° 17° (NNE) 3,715 7.5 -9.4°
